Time,TemperatureF,DewpointF,PressureIn,WindDirection,WindDirectionDegrees,WindSpeedMPH,WindSpeedGustMPH,Humidity,HourlyPrecipIn,Conditions,Clouds,dailyrainin,SolarRadiationWatts/m^2,SoftwareType,DateUTC
2013-01-08 00:04:00,10.0,7.0,-100.00,North,1,2.0,6.0,86,0.00,,,0.10,0.000000,,2013-01-08 05:04:00,
2013-01-08 00:12:00,10.0,7.0,-100.00,North,1,2.0,6.0,86,0.00,,,0.10,0.000000,,2013-01-08 05:12:00,
2013-01-08 00:33:00,10.0,7.0,-100.00,North,11,3.0,6.0,86,0.00,,,0.09,0.000000,,2013-01-08 05:33:00,
2013-01-08 00:43:00,10.0,7.0,-100.00,North,11,3.0,6.0,86,0.00,,,0.09,0.000000,,2013-01-08 05:43:00,
2013-01-08 00:53:00,10.0,7.0,-100.00,North,11,3.0,6.0,86,0.00,,,0.09,0.000000,,2013-01-08 05:53:00,
2013-01-08 01:03:00,10.0,7.0,-100.00,North,11,3.0,6.0,86,0.00,,,0.09,0.000000,,2013-01-08 06:03:00,
2013-01-08 01:12:00,10.0,7.0,-100.00,North,11,3.0,6.0,86,0.00,,,0.09,0.000000,,2013-01-08 06:12:00,
2013-01-08 01:33:00,8.0,5.0,-100.00,East,80,2.0,7.0,86,0.00,,,0.09,0.000000,,2013-01-08 06:33:00,
2013-01-08 01:43:00,8.0,5.0,-100.00,East,80,2.0,7.0,86,0.00,,,0.09,0.000000,,2013-01-08 06:43:00,
2013-01-08 01:53:00,8.0,5.0,-100.00,East,80,2.0,7.0,86,0.00,,,0.09,0.000000,,2013-01-08 06:53:00,
2013-01-08 02:02:00,8.0,5.0,-100.00,East,80,2.0,7.0,86,0.00,,,0.09,0.000000,,2013-01-08 07:02:00,
2013-01-08 02:12:00,8.0,5.0,-100.00,East,80,2.0,7.0,86,0.00,,,0.09,0.000000,,2013-01-08 07:12:00,
2013-01-08 02:42:00,7.0,3.0,-100.00,ENE,58,3.0,6.0,85,0.00,,,0.08,0.000000,,2013-01-08 07:42:00,
2013-01-08 02:52:00,7.0,3.0,-100.00,ENE,58,3.0,6.0,85,0.00,,,0.08,0.000000,,2013-01-08 07:52:00,
2013-01-08 03:02:00,7.0,3.0,-100.00,ENE,58,3.0,6.0,85,0.00,,,0.08,0.000000,,2013-01-08 08:02:00,
2013-01-08 03:12:00,7.0,3.0,-100.00,ENE,58,3.0,6.0,85,0.00,,,0.08,0.000000,,2013-01-08 08:12:00,
2013-01-08 03:42:00,6.0,2.0,-100.00,WSW,251,3.0,6.0,83,0.00,,,0.08,0.000000,,2013-01-08 08:42:00,
2013-01-08 03:53:00,6.0,2.0,-100.00,WSW,251,3.0,6.0,83,0.00,,,0.08,0.000000,,2013-01-08 08:53:00,
2013-01-08 04:02:00,6.0,2.0,-100.00,WSW,251,3.0,6.0,83,0.00,,,0.08,0.000000,,2013-01-08 09:02:00,
2013-01-08 04:12:00,6.0,2.0,-100.00,WSW,251,3.0,6.0,83,0.00,,,0.08,0.000000,,2013-01-08 09:12:00,
2013-01-08 04:33:00,6.0,2.0,-100.00,East,91,3.0,6.0,82,0.00,,,0.08,0.000000,,2013-01-08 09:33:00,
2013-01-08 04:42:00,6.0,2.0,-100.00,East,91,3.0,6.0,82,0.00,,,0.08,0.000000,,2013-01-08 09:42:00,
2013-01-08 04:53:00,6.0,2.0,-100.00,East,91,3.0,6.0,82,0.00,,,0.08,0.000000,,2013-01-08 09:53:00,
2013-01-08 05:03:00,6.0,2.0,-100.00,East,91,3.0,6.0,82,0.00,,,0.08,0.000000,,2013-01-08 10:03:00,
2013-01-08 05:12:00,6.0,2.0,-100.00,East,91,3.0,6.0,82,0.00,,,0.08,0.000000,,2013-01-08 10:12:00,
2013-01-08 05:33:00,6.0,2.0,-100.00,ENE,75,3.0,9.0,83,0.00,,,0.08,0.000000,,2013-01-08 10:33:00,
2013-01-08 05:43:00,6.0,2.0,-100.00,ENE,75,3.0,9.0,83,0.00,,,0.08,0.000000,,2013-01-08 10:43:00,
2013-01-08 05:53:00,6.0,2.0,-100.00,ENE,75,3.0,9.0,83,0.00,,,0.08,0.000000,,2013-01-08 10:53:00,
2013-01-08 06:02:00,6.0,2.0,-100.00,ENE,75,3.0,9.0,83,0.00,,,0.08,0.000000,,2013-01-08 11:02:00,
2013-01-08 06:12:00,6.0,2.0,-100.00,ENE,75,3.0,9.0,83,0.00,,,0.08,0.000000,,2013-01-08 11:12:00,
2013-01-08 06:33:00,6.0,2.0,-100.00,ESE,105,3.0,7.0,83,0.00,,,0.08,0.000000,,2013-01-08 11:33:00,
2013-01-08 06:43:00,6.0,2.0,-100.00,ESE,105,3.0,7.0,83,0.00,,,0.08,0.000000,,2013-01-08 11:43:00,
2013-01-08 06:53:00,6.0,2.0,-100.00,ESE,105,3.0,7.0,83,0.00,,,0.08,0.000000,,2013-01-08 11:53:00,
2013-01-08 07:03:00,6.0,2.0,-100.00,ESE,105,3.0,7.0,83,0.00,,,0.08,0.000000,,2013-01-08 12:03:00,
2013-01-08 07:12:00,6.0,2.0,-100.00,ESE,105,3.0,7.0,83,0.00,,,0.08,0.000000,,2013-01-08 12:12:00,
2013-01-08 07:33:00,7.0,3.0,-100.00,NNE,14,3.0,8.0,83,0.00,,,0.08,1.000000,,2013-01-08 12:33:00,
2013-01-08 07:43:00,7.0,3.0,-100.00,NNE,14,3.0,8.0,83,0.00,,,0.08,1.000000,,2013-01-08 12:43:00,
2013-01-08 07:53:00,7.0,3.0,-100.00,NNE,14,3.0,8.0,83,0.00,,,0.08,1.000000,,2013-01-08 12:53:00,
2013-01-08 08:03:00,7.0,3.0,-100.00,NNE,14,3.0,8.0,83,0.00,,,0.08,1.000000,,2013-01-08 13:03:00,
2013-01-08 08:13:00,7.0,3.0,-100.00,NNE,14,3.0,8.0,83,0.00,,,0.08,1.000000,,2013-01-08 13:13:00,
2013-01-08 08:33:00,10.0,6.0,-100.00,NE,44,4.0,11.0,84,0.00,,,0.08,11.000000,,2013-01-08 13:33:00,
2013-01-08 08:43:00,10.0,6.0,-100.00,NE,44,4.0,11.0,84,0.00,,,0.08,11.000000,,2013-01-08 13:43:00,
2013-01-08 08:53:00,10.0,6.0,-100.00,NE,44,4.0,11.0,84,0.00,,,0.08,11.000000,,2013-01-08 13:53:00,
2013-01-08 09:03:00,10.0,6.0,-100.00,NE,44,4.0,11.0,84,0.00,,,0.08,11.000000,,2013-01-08 14:03:00,
2013-01-08 09:13:00,10.0,6.0,-100.00,NE,44,4.0,11.0,84,0.00,,,0.08,11.000000,,2013-01-08 14:13:00,
2013-01-08 09:43:00,15.0,11.0,-100.00,NE,50,5.0,10.0,83,0.00,,,0.07,77.000000,,2013-01-08 14:43:00,
2013-01-08 09:53:00,15.0,11.0,-100.00,NE,50,5.0,10.0,83,0.00,,,0.07,77.000000,,2013-01-08 14:53:00,
2013-01-08 10:03:00,15.0,11.0,-100.00,NE,50,5.0,10.0,83,0.00,,,0.07,77.000000,,2013-01-08 15:03:00,
2013-01-08 10:12:00,15.0,11.0,-100.00,NE,50,5.0,10.0,83,0.00,,,0.07,77.000000,,2013-01-08 15:12:00,
2013-01-08 10:33:00,29.0,23.0,-100.00,North,357,4.0,7.0,79,0.00,,,0.07,245.000000,,2013-01-08 15:33:00,
2013-01-08 10:43:00,29.0,23.0,-100.00,North,357,4.0,7.0,79,0.00,,,0.07,245.000000,,2013-01-08 15:43:00,
2013-01-08 10:53:00,29.0,23.0,-100.00,North,357,4.0,7.0,79,0.00,,,0.07,245.000000,,2013-01-08 15:53:00,
2013-01-08 11:03:00,29.0,23.0,-100.00,North,357,4.0,7.0,79,0.00,,,0.07,245.000000,,2013-01-08 16:03:00,
2013-01-08 11:13:00,29.0,23.0,-100.00,North,357,4.0,7.0,79,0.00,,,0.07,245.000000,,2013-01-08 16:13:00,
2013-01-08 11:34:00,44.0,24.0,-100.00,NNW,347,4.0,7.0,45,0.02,,,0.09,359.000000,,2013-01-08 16:34:00,
2013-01-08 11:43:00,44.0,24.0,-100.00,NNW,347,4.0,7.0,45,0.02,,,0.09,359.000000,,2013-01-08 16:43:00,
2013-01-08 11:53:00,44.0,24.0,-100.00,NNW,347,4.0,7.0,45,0.02,,,0.09,359.000000,,2013-01-08 16:53:00,
2013-01-08 12:03:00,44.0,24.0,-100.00,NNW,347,4.0,7.0,45,0.02,,,0.09,359.000000,,2013-01-08 17:03:00,
2013-01-08 12:13:00,44.0,24.0,-100.00,NNW,347,4.0,7.0,45,0.02,,,0.09,359.000000,,2013-01-08 17:13:00,
2013-01-08 12:34:00,43.0,19.0,-100.00,NW,320,6.0,13.0,38,0.03,,,0.12,351.000000,,2013-01-08 17:34:00,
2013-01-08 12:43:00,43.0,19.0,-100.00,NW,320,6.0,13.0,38,0.03,,,0.12,351.000000,,2013-01-08 17:43:00,
2013-01-08 12:54:00,43.0,19.0,-100.00,NW,320,6.0,13.0,38,0.03,,,0.12,351.000000,,2013-01-08 17:54:00,
2013-01-08 13:04:00,43.0,19.0,-100.00,NW,320,6.0,13.0,38,0.03,,,0.12,351.000000,,2013-01-08 18:04:00,
2013-01-08 13:13:00,43.0,19.0,-100.00,NW,320,6.0,13.0,38,0.03,,,0.12,351.000000,,2013-01-08 18:13:00,
2013-01-08 13:33:00,40.0,16.0,-100.00,NW,316,7.0,15.0,38,0.03,,,0.14,297.000000,,2013-01-08 18:33:00,
2013-01-08 13:43:00,40.0,16.0,-100.00,NW,316,7.0,15.0,38,0.03,,,0.14,297.000000,,2013-01-08 18:43:00,
2013-01-08 13:53:00,40.0,16.0,-100.00,NW,316,7.0,15.0,38,0.03,,,0.14,297.000000,,2013-01-08 18:53:00,
2013-01-08 14:03:00,40.0,16.0,-100.00,NW,316,7.0,15.0,38,0.03,,,0.14,297.000000,,2013-01-08 19:03:00,
2013-01-08 14:12:00,40.0,16.0,-100.00,NW,316,7.0,15.0,38,0.03,,,0.14,297.000000,,2013-01-08 19:12:00,
2013-01-08 14:43:00,41.0,20.0,-100.00,NNW,344,5.0,13.0,43,0.02,,,0.14,201.000000,,2013-01-08 19:43:00,
2013-01-08 14:53:00,41.0,20.0,-100.00,NNW,344,5.0,13.0,43,0.02,,,0.14,201.000000,,2013-01-08 19:53:00,
2013-01-08 15:03:00,41.0,20.0,-100.00,NNW,344,5.0,13.0,43,0.02,,,0.14,201.000000,,2013-01-08 20:03:00,
2013-01-08 15:12:00,41.0,20.0,-100.00,NNW,344,5.0,13.0,43,0.02,,,0.14,201.000000,,2013-01-08 20:12:00,
2013-01-08 15:33:00,43.0,19.0,-100.00,NNW,340,4.0,11.0,37,0.00,,,0.10,248.000000,,2013-01-08 20:33:00,
2013-01-08 15:43:00,43.0,19.0,-100.00,NNW,340,4.0,11.0,37,0.00,,,0.10,248.000000,,2013-01-08 20:43:00,
2013-01-08 15:54:00,43.0,19.0,-100.00,NNW,340,4.0,11.0,37,0.00,,,0.10,248.000000,,2013-01-08 20:54:00,
2013-01-08 16:03:00,43.0,19.0,-100.00,NNW,340,4.0,11.0,37,0.00,,,0.10,248.000000,,2013-01-08 21:03:00,
2013-01-08 16:13:00,43.0,19.0,-100.00,NNW,340,4.0,11.0,37,0.00,,,0.10,248.000000,,2013-01-08 21:13:00,
2013-01-08 16:43:00,36.0,17.0,-100.00,North,355,3.0,10.0,45,0.00,,,0.10,83.000000,,2013-01-08 21:43:00,
2013-01-08 16:53:00,36.0,17.0,-100.00,North,355,3.0,10.0,45,0.00,,,0.10,83.000000,,2013-01-08 21:53:00,
2013-01-08 17:04:00,36.0,17.0,-100.00,North,355,3.0,10.0,45,0.00,,,0.10,83.000000,,2013-01-08 22:04:00,
2013-01-08 17:12:00,36.0,17.0,-100.00,North,355,3.0,10.0,45,0.00,,,0.10,83.000000,,2013-01-08 22:12:00,
2013-01-08 17:43:00,26.0,18.0,-100.00,SSW,194,3.0,7.0,72,0.00,,,0.10,4.000000,,2013-01-08 22:43:00,
2013-01-08 17:53:00,26.0,18.0,-100.00,SSW,194,3.0,7.0,72,0.00,,,0.10,4.000000,,2013-01-08 22:53:00,
2013-01-08 18:03:00,26.0,18.0,-100.00,SSW,194,3.0,7.0,72,0.00,,,0.10,4.000000,,2013-01-08 23:03:00,
2013-01-08 18:13:00,26.0,18.0,-100.00,SSW,194,3.0,7.0,72,0.00,,,0.10,4.000000,,2013-01-08 23:13:00,
2013-01-08 18:33:00,23.0,18.0,-100.00,ENE,67,2.0,5.0,81,0.00,,,0.10,0.000000,,2013-01-08 23:33:00,
2013-01-08 18:43:00,23.0,18.0,-100.00,ENE,67,2.0,5.0,81,0.00,,,0.10,0.000000,,2013-01-08 23:43:00,
2013-01-08 18:53:00,23.0,18.0,-100.00,ENE,67,2.0,5.0,81,0.00,,,0.10,0.000000,,2013-01-08 23:53:00,
2013-01-08 19:03:00,23.0,18.0,-100.00,ENE,67,2.0,5.0,81,0.00,,,0.10,0.000000,,2013-01-09 00:03:00,
2013-01-08 19:13:00,23.0,18.0,-100.00,ENE,67,2.0,5.0,81,0.00,,,0.10,0.000000,,2013-01-09 00:13:00,
2013-01-08 19:43:00,21.0,17.0,-100.00,East,84,1.0,4.0,86,0.00,,,0.10,0.000000,,2013-01-09 00:43:00,
2013-01-08 19:53:00,21.0,17.0,-100.00,East,84,1.0,4.0,86,0.00,,,0.10,0.000000,,2013-01-09 00:53:00,
2013-01-08 20:02:00,21.0,17.0,-100.00,East,84,1.0,4.0,86,0.00,,,0.10,0.000000,,2013-01-09 01:02:00,
2013-01-08 20:12:00,21.0,17.0,-100.00,East,84,1.0,4.0,86,0.00,,,0.10,0.000000,,2013-01-09 01:12:00,
2013-01-08 20:43:00,20.0,17.0,-100.00,South,191,2.0,5.0,88,0.00,,,0.10,0.000000,,2013-01-09 01:43:00,
2013-01-08 20:53:00,20.0,17.0,-100.00,South,191,2.0,5.0,88,0.00,,,0.10,0.000000,,2013-01-09 01:53:00,
2013-01-08 21:02:00,20.0,17.0,-100.00,South,191,2.0,5.0,88,0.00,,,0.10,0.000000,,2013-01-09 02:02:00,
2013-01-08 21:12:00,20.0,17.0,-100.00,South,191,2.0,5.0,88,0.00,,,0.10,0.000000,,2013-01-09 02:12:00,
2013-01-08 21:43:00,19.0,16.0,-100.00,NW,322,2.0,6.0,86,0.00,,,0.10,0.000000,,2013-01-09 02:43:00,
2013-01-08 21:53:00,19.0,16.0,-100.00,NW,322,2.0,6.0,86,0.00,,,0.10,0.000000,,2013-01-09 02:53:00,
2013-01-08 22:03:00,19.0,16.0,-100.00,NW,322,2.0,6.0,86,0.00,,,0.10,0.000000,,2013-01-09 03:03:00,
2013-01-08 22:12:00,19.0,16.0,-100.00,NW,322,2.0,6.0,86,0.00,,,0.10,0.000000,,2013-01-09 03:12:00,
2013-01-08 22:33:00,18.0,15.0,-100.00,WSW,242,2.0,6.0,89,0.00,,,0.10,0.000000,,2013-01-09 03:33:00,
2013-01-08 22:43:00,18.0,15.0,-100.00,WSW,242,2.0,6.0,89,0.00,,,0.10,0.000000,,2013-01-09 03:43:00,
2013-01-08 22:53:00,18.0,15.0,-100.00,WSW,242,2.0,6.0,89,0.00,,,0.10,0.000000,,2013-01-09 03:53:00,
2013-01-08 23:02:00,18.0,15.0,-100.00,WSW,242,2.0,6.0,89,0.00,,,0.10,0.000000,,2013-01-09 04:02:00,
2013-01-08 23:12:00,18.0,15.0,-100.00,WSW,242,2.0,6.0,89,0.00,,,0.10,0.000000,,2013-01-09 04:12:00,
2013-01-08 23:33:00,16.0,14.0,-100.00,North,1,1.0,5.0,90,0.00,,,0.10,0.000000,,2013-01-09 04:33:00,
2013-01-08 23:43:00,16.0,14.0,-100.00,North,1,1.0,5.0,90,0.00,,,0.10,0.000000,,2013-01-09 04:43:00,
2013-01-08 23:53:00,16.0,14.0,-100.00,North,1,1.0,5.0,90,0.00,,,0.10,0.000000,,2013-01-09 04:53:00,